Dewpoint
31 33 35 37 39 40 40 40 40 39 42 46 47 48 50 51 51 52 52 53 55 56 56 57 57 58 59 61 61 60 60 59 58 57 55 53 52 50
29 30 31 34 37 39 41 39 41 43 41 48 46 46 49 50 50 50 51 50 52 53 54 55 55 55 57 59 59 59 59 58 58 57 54 53 51 49
29 29 30 32 34 37 39 40 40 41 42 43 48 46 47 48 48 49 49 49 50 51 52 53 54 54 55 56 57 58 58 58 58 56 54 53 51 49
26 28 29 28 30 33 36 36 38 41 41 42 46 45 46 47 46 46 46 48 48 50 51 53 54 55 54 55 56 56 56 56 55 54 53 52 50 49
26 26 27 28 29 31 35 36 36 37 40 42 44 43 43 44 43 43 43 44 46 48 51 52 54 55 55 55 55 55 55 53 53 52 51 50 49 47
27 27 27 28 29 30 31 34 34 36 37 40 40 42 42 42 42 41 40 39 40 42 44 47 50 51 53 53 53 51 51 51 50 50 49 47 45 44
29 30 30 30 29 31 31 34 34 35 37 38 41 41 39 39 40 41 37 37 38 37 38 37 41 43 45 47 48 48 49 48 48 47 45 43 42 41
30 30 31 32 31 30 32 34 36 34 35 36 37 39 40 41 40 40 36 35 35 39 36 35 38 38 42 44 46 46 46 46 45 44 43 41 39 37
31 30 30 30 32 30 31 33 34 36 37 36 36 37 39 41 41 38 37 37 36 35 36 32 34 35 39 44 45 44 44 43 43 42 40 38 35 33
30 29 29 31 33 32 30 30 32 33 35 36 37 38 40 43 42 41 39 33 34 33 34 30 31 31 36 41 42 42 41 41 40 39 36 34 32 31
30 31 29 30 33 34 31 31 31 32 35 38 40 41 43 44 43 38 36 35 31 32 32 31 30 30 31 33 38 39 38 38 36 35 33 32 30 30
32 33 33 33 35 35 33 33 31 32 33 33 34 37 40 41 44 41 38 37 30 30 32 30 30 30 28 30 33 33 36 36 34 32 30 30 29 24
33 33 33 35 35 35 36 35 34 33 35 34 34 36 36 39 42 41 39 39 35 33 33 32 31 30 29 27 29 32 34 31 28 27 27 26 26 27
32 34 36 37 37 35 35 36 37 36 36 35 35 35 36 38 39 38 37 36 35 35 34 32 32 29 28 27 26 29 29 26 22 20 21 25 25 24
34 34 37 37 37 36 36 37 38 37 37 36 35 34 33 34 33 32 32 32 32 34 34 32 33 29 30 27 26 24 25 22 21 21 21 19 20 21
33 34 36 35 36 37 37 36 35 36 36 36 35 31 31 32 32 32 31 30 28 28 31 32 31 30 28 28 28 26 25 21 21 21 20 20 21 22
35 34 33 33 33 33 34 35 35 36 37 35 31 30 30 31 30 31 30 29 26 26 25 26 28 28 28 28 25 24 21 20 20 20 19 19 20 20
33 32 32 31 31 32 33 34 35 35 35 33 32 31 29 29 28 29 30 28 26 24 23 25 25 24 23 23 24 20 20 19 19 20 19 16 18 19
30 26 25 26 27 30 32 34 34 35 34 32 31 30 29 28 28 27 27 26 25 24 24 25 23 21 17 16 20 22 17 18 19 18 19 17 16 19
28 27 26 26 24 26 29 30 32 32 32 31 30 29 28 27 26 25 25 24 23 23 19 20 21 22 17 15 15 17 20 16 15 16 16 17 19 20
26 26 26 26 27 27 27 29 30 30 30 29 28 28 27 26 25 24 24 25 24 22 20 18 17 20 18 18 14 10 17 21 18 14 11 10 11 14
26 26 26 27 27 27 27 28 29 29 28 28 27 26 26 25 24 24 25 23 22 21 18 16 16 14 12 14 13 12 14 16 22 22 22 17 9 6
26 26 26 26 27 28 28 28 27 27 26 26 25 25 25 24 25 24 23 21 19 18 17 15 15 16 13 15 15 8 10 10 13 12 14 20 19 19
Lifted_Index
12 12 12 11 11 10 10 9 8 6 4 4 3 3 3 4 4 4 4 3 3 2 2 1 1 1 1 1 1 1 2 3 3 4 5 6 7 8
12 12 12 12 11 11 10 10 8 6 5 4 4 3 3 4 4 5 4 3 3 3 2 2 2 2 2 1 1 1 2 2 3 4 5 6 7 7
11 11 12 12 12 11 11 10 9 7 5 5 4 4 4 4 4 5 4 4 3 3 3 3 4 4 3 2 1 1 1 2 3 4 4 5 6 6
11 11 11 12 12 12 12 11 10 8 6 5 5 5 4 4 4 5 5 4 4 4 4 4 4 4 4 3 2 1 1 2 3 3 4 5 5 6
12 12 12 12 12 12 12 12 11 10 8 6 5 5 5 5 4 5 5 5 5 4 4 5 4 4 4 3 2 1 1 2 3 3 4 5 5 6
13 13 12 12 12 12 12 12 12 11 10 7 6 5 5 5 5 5 5 5 5 5 5 5 5 4 3 3 2 1 1 2 3 3 4 5 6 6
14 14 13 13 13 13 12 12 12 12 11 9 7 6 5 5 4 4 5 5 6 5 5 5 5 4 4 3 3 2 2 2 3 4 4 5 6 6
14 14 14 13 13 13 13 12 12 12 12 10 8 6 5 5 5 5 5 5 5 5 5 5 5 5 4 5 4 4 4 3 4 5 5 6 6 6
14 14 14 13 13 13 13 13 13 12 12 11 9 7 6 5 5 5 5 5 5 5 5 5 5 5 6 6 6 6 5 5 5 5 6 6 6 7
13 13 13 13 13 13 13 13 13 13 12 12 10 8 6 6 5 5 4 4 5 5 5 5 5 6 6 7 8 7 7 6 6 6 6 6 7 8
12 12 13 13 13 13 13 12 12 12 12 11 10 9 7 6 5 4 4 4 4 5 5 5 5 6 6 7 8 8 8 7 7 7 7 7 9 10
11 11 12 12 12 12 12 12 12 11 11 11 10 9 7 6 5 4 4 4 4 5 5 5 5 5 6 7 8 9 9 8 8 8 8 10 12 13
10 10 11 11 12 12 12 11 11 11 11 11 10 9 7 6 5 4 4 4 4 5 5 5 5 5 5 6 7 8 9 9 9 9 10 13 15 16
10 10 10 10 10 11 11 11 11 11 11 10 10 9 8 6 5 4 4 4 4 5 5 5 5 5 5 4 5 7 8 9 10 11 13 15 16 17
9 9 9 9 10 11 11 11 11 10 10 10 9 8 7 6 4 4 4 4 4 4 5 5 5 5 5 4 4 5 6 8 10 12 14 16 16 17
9 9 9 9 9 10 10 11 11 10 10 9 9 8 6 5 4 3 3 3 4 4 5 6 6 6 5 5 5 5 6 7 10 13 15 16 16 16
8 8 8 8 8 8 9 9 10 10 10 10 9 8 6 5 4 3 3 4 4 4 4 6 6 7 7 6 6 6 7 9 12 14 15 15 16 16
8 8 8 7 7 7 7 8 9 10 10 10 9 8 6 5 4 4 4 4 4 4 4 5 6 6 6 7 8 9 11 13 14 15 15 15 15 15
9 8 7 7 7 6 6 7 7 9 10 10 9 8 7 6 5 5 4 4 4 4 4 5 5 5 5 6 9 13 14 15 15 15 15 15 15 15
9 9 8 7 7 7 7 6 7 8 9 9 9 8 7 6 5 5 5 4 4 4 5 6 7 7 7 7 10 14 16 16 16 15 15 15 15 16
10 10 9 8 8 8 8 7 7 7 8 8 8 7 7 6 5 5 5 5 5 5 6 8 10 12 12 11 12 14 16 17 17 16 16 15 15 15
11 11 11 10 10 9 9 8 7 7 7 7 7 7 7 6 6 6 6 6 6 7 8 11 14 15 15 14 14 14 15 16 17 17 16 16 15 14
12 12 12 12 11 10 10 9 8 7 7 7 7 7 7 7 7 7 7 7 7 8 10 13 15 16 15 14 14 14 15 16 16 16 16 17 16 16